Temp
-15 -15 -15 -15 -15 -15 -15 -15 -15 -15 -15 -14 -14 -14 -14 -14 -14 -14 -14 -14 -14 -14 -13 -13 -13 -13 -14 -14 -14 -14 -14 -14 -14 -13 -13 -13 -13 -13 -13 -13 -13 -14 -14 -14 -14 -14 -14 -14 -14 -14 -14 -14 -14 -14 -14 -14 -14 -14 -14 -14 -14 -14 -14
-15 -15 -15 -15 -15 -15 -15 -15 -15 -15 -15 -14 -14 -14 -14 -14 -14 -14 -14 -14 -14 -14 -14 -14 -14 -14 -14 -14 -14 -14 -14 -14 -14 -14 -13 -13 -13 -13 -13 -13 -13 -14 -14 -14 -14 -14 -14 -14 -14 -14 -14 -14 -14 -14 -14 -14 -14 -14 -14 -14 -15 -15 -15
-15 -15 -15 -15 -15 -15 -15 -15 -15 -15 -15 -15 -14 -14 -14 -14 -14 -14 -14 -14 -14 -14 -14 -14 -14 -14 -14 -14 -14 -14 -14 -14 -14 -14 -14 -14 -13 -13 -13 -13 -14 -14 -14 -14 -14 -14 -14 -14 -14 -14 -14 -14 -14 -14 -14 -14 -14 -15 -15 -15 -15 -15 -15
-15 -15 -15 -15 -15 -15 -15 -15 -15 -15 -15 -15 -15 -15 -15 -14 -14 -14 -14 -14 -14 -14 -14 -14 -14 -14 -14 -14 -14 -14 -14 -14 -14 -14 -14 -14 -14 -14 -14 -14 -14 -14 -14 -14 -14 -14 -14 -14 -14 -14 -15 -15 -15 -14 -14 -14 -15 -15 -15 -15 -15 -15 -15
-15 -15 -15 -15 -15 -15 -15 -15 -15 -15 -15 -15 -15 -15 -15 -14 -14 -14 -14 -14 -15 -15 -14 -14 -14 -14 -14 -14 -14 -14 -14 -14 -14 -14 -14 -14 -14 -14 -14 -14 -14 -14 -14 -14 -14 -14 -14 -14 -14 -15 -15 -15 -15 -14 -14 -14 -14 -15 -15 -15 -15 -15 -15
-15 -15 -15 -15 -15 -15 -15 -15 -15 -15 -15 -15 -15 -15 -15 -15 -14 -14 -15 -15 -15 -15 -15 -14 -14 -14 -14 -14 -14 -14 -14 -14 -14 -14 -14 -14 -14 -14 -14 -14 -14 -14 -14 -14 -14 -14 -14 -15 -15 -15 -15 -15 -15 -15 -14 -14 -14 -15 -15 -15 -15 -15 -15
-15 -15 -15 -15 -16 -16 -15 -15 -15 -15 -15 -15 -15 -15 -15 -15 -15 -15 -15 -15 -15 -15 -15 -15 -15 -15 -15 -15 -15 -15 -15 -15 -15 -14 -14 -14 -14 -14 -14 -14 -14 -14 -14 -14 -14 -15 -15 -15 -15 -15 -15 -15 -15 -15 -15 -15 -15 -15 -15 -15 -15 -15 -15
-16 -15 -16 -16 -16 -16 -16 -15 -15 -15 -15 -15 -15 -15 -15 -15 -15 -15 -15 -15 -15 -15 -15 -15 -15 -15 -15 -15 -15 -15 -15 -15 -15 -15 -15 -15 -15 -15 -15 -15 -15 -15 -15 -15 -15 -15 -15 -15 -15 -15 -15 -15 -15 -15 -15 -15 -15 -15 -15 -15 -15 -15 -15
-16 -16 -16 -16 -16 -16 -16 -16 -15 -15 -15 -15 -15 -15 -15 -15 -15 -15 -15 -15 -15 -15 -15 -15 -15 -15 -15 -15 -15 -15 -15 -15 -15 -15 -15 -15 -15 -15 -15 -15 -15 -15 -15 -15 -15 -15 -15 -15 -16 -16 -16 -15 -15 -15 -15 -15 -15 -15 -15 -15 -15 -15 -15
-16 -16 -16 -16 -16 -16 -16 -16 -16 -16 -16 -15 -15 -15 -15 -15 -15 -15 -15 -15 -15 -15 -15 -15 -15 -15 -15 -16 -16 -16 -16 -16 -15 -15 -15 -15 -15 -15 -15 -15 -15 -15 -15 -15 -15 -15 -15 -16 -16 -16 -16 -16 -16 -16 -16 -15 -15 -16 -16 -16 -16 -16 -16
-16 -16 -16 -16 -16 -16 -16 -16 -16 -16 -16 -16 -15 -15 -15 -15 -15 -15 -15 -15 -15 -15 -15 -15 -15 -16 -16 -16 -16 -16 -16 -16 -16 -16 -16 -16 -16 -16 -16 -16 -16 -16 -16 -16 -16 -16 -16 -16 -16 -16 -16 -16 -16 -16 -16 -16 -16 -16 -16 -16 -16 -16 -16
-16 -16 -16 -16 -16 -16 -16 -16 -16 -16 -16 -16 -16 -16 -15 -15 -15 -15 -15 -15 -15 -15 -15 -15 -16 -16 -16 -16 -16 -16 -16 -16 -16 -16 -16 -16 -16 -16 -16 -16 -16 -16 -16 -16 -16 -16 -16 -16 -16 -16 -17 -17 -17 -17 -17 -16 -17 -17 -17 -16 -16 -16 -16
-16 -16 -16 -16 -16 -16 -16 -16 -16 -16 -16 -16 -16 -16 -16 -16 -16 -16 -15 -15 -15 -15 -16 -16 -16 -16 -16 -16 -16 -16 -16 -16 -16 -16 -16 -16 -16 -16 -16 -16 -16 -16 -16 -16 -16 -16 -16 -16 -16 -17 -17 -17 -17 -17 -17 -17 -17 -17 -17 -17 -17 -17 -17
-16 -16 -16 -16 -16 -16 -16 -16 -16 -16 -16 -16 -16 -16 -17 -16 -16 -16 -16 -16 -16 -16 -16 -16 -16 -16 -16 -16 -16 -16 -16 -16 -16 -16 -16 -16 -16 -16 -16 -16 -16 -16 -17 -17 -16 -16 -16 -16 -17 -17 -17 -17 -17 -17 -17 -17 -17 -17 -17 -17 -17 -17 -17
-16 -16 -16 -16 -16 -16 -16 -16 -16 -17 -17 -17 -17 -17 -17 -17 -17 -16 -16 -16 -16 -16 -16 -16 -16 -16 -16 -16 -16 -16 -16 -16 -16 -16 -16 -16 -16 -16 -16 -16 -16 -16 -17 -16 -16 -16 -16 -16 -17 -17 -17 -17 -17 -17 -17 -17 -17 -17 -17 -17 -17 -17 -17
-16 -16 -16 -16 -17 -16 -16 -16 -17 -17 -17 -17 -17 -17 -17 -17 -17 -17 -16 -16 -16 -16 -16 -16 -16 -16 -16 -16 -16 -16 -16 -16 -16 -16 -16 -16 -16 -16 -16 -16 -16 -16 -17 -17 -16 -16 -16 -16 -16 -17 -17 -17 -17 -17 -17 -17 -17 -17 -17 -17 -17 -17 -17
-16 -16 -16 -16 -16 -16 -16 -16 -17 -17 -17 -17 -18 -18 -17 -17 -17 -17 -17 -17 -17 -17 -16 -16 -16 -16 -16 -16 -16 -16 -16 -16 -16 -16 -16 -16 -16 -16 -16 -16 -16 -17 -17 -17 -17 -17 -17 -17 -17 -17 -17 -17 -17 -17 -17 -17 -18 -18 -18 -18 -18 -18 -17
-16 -16 -16 -16 -16 -16 -16 -17 -17 -17 -17 -18 -18 -18 -18 -17 -17 -17 -17 -17 -17 -16 -16 -16 -16 -16 -16 -16 -16 -17 -17 -17 -16 -16 -16 -16 -16 -17 -17 -17 -17 -17 -17 -17 -17 -17 -17 -17 -17 -17 -17 -17 -17 -17 -17 -18 -18 -18 -18 -18 -18 -18 -18
-16 -16 -16 -16 -16 -16 -17 -17 -17 -17 -17 -17 -18 -18 -18 -18 -17 -17 -17 -17 -17 -17 -16 -17 -17 -17 -17 -17 -17 -17 -17 -17 -17 -17 -17 -17 -17 -17 -17 -17 -17 -17 -17 -17 -17 -17 -17 -17 -17 -17 -17 -17 -17 -17 -17 -17 -18 -18 -18 -18 -18 -18 -18
-16 -16 -16 -16 -16 -16 -16 -17 -17 -17 -17 -17 -18 -18 -18 -18 -18 -18 -18 -17 -17 -17 -17 -17 -17 -17 -17 -17 -17 -17 -17 -17 -17 -17 -17 -17 -17 -17 -17 -17 -17 -17 -17 -17 -17 -17 -17 -17 -17 -17 -17 -17 -17 -17 -17 -17 -17 -18 -18 -18 -18 -18 -18
-16 -16 -16 -16 -16 -16 -16 -16 -17 -17 -17 -17 -18 -18 -18 -18 -18 -18 -18 -18 -18 -17 -17 -17 -17 -17 -17 -17 -17 -17 -17 -17 -17 -17 -17 -17 -17 -17 -18 -18 -18 -17 -17 -17 -17 -17 -17 -17 -18 -18 -17 -17 -17 -17 -18 -18 -18 -18 -18 -18 -18 -18 -18
-16 -16 -16 -16 -16 -17 -17 -17 -17 -17 -17 -17 -18 -18 -18 -18 -18 -18 -18 -18 -18 -18 -18 -17 -17 -17 -17 -17 -17 -17 -17 -17 -17 -17 -17 -17 -18 -18 -18 -18 -18 -18 -18 -17 -17 -17 -17 -17 -17 -18 -18 -18 -17 -17 -18 -18 -18 -18 -18 -18 -18 -18 -19
-16 -16 -16 -16 -16 -17 -17 -17 -17 -17 -17 -17 -17 -17 -17 -17 -18 -18 -18 -18 -18 -18 -18 -18 -18 -17 -17 -17 -17 -17 -17 -17 -17 -17 -17 -17 -17 -17 -17 -17 -18 -18 -18 -18 -18 -17 -17 -17 -17 -18 -18 -18 -18 -18 -18 -18 -18 -18 -18 -18 -19 -19 -19
-16 -16 -16 -16 -17 -17 -17 -17 -17 -17 -17 -17 -17 -17 -17 -17 -17 -18 -18 -18 -18 -18 -18 -18 -17 -17 -17 -17 -17 -17 -17 -17 -17 -17 -17 -17 -17 -17 -17 -17 -17 -18 -18 -18 -18 -18 -18 -18 -17 -18 -18 -18 -18 -18 -18 -18 -18 -18 -18 -18 -19 -19 -19
-17 -17 -17 -17 -17 -17 -17 -17 -17 -17 -17 -17 -17 -17 -17 -17 -17 -18 -18 -18 -18 -18 -18 -17 -17 -17 -17 -17 -17 -17 -17 -17 -17 -17 -17 -17 -17 -17 -17 -17 -17 -17 -17 -18 -18 -18 -18 -18 -18 -18 -18 -18 -18 -18 -18 -18 -18 -18 -18 -18 -18 -19 -19
-17 -17 -17 -17 -17 -17 -17 -17 -17 -17 -17 -17 -17 -17 -17 -17 -18 -18 -18 -18 -18 -18 -18 -17 -17 -17 -17 -17 -17 -17 -17 -17 -17 -17 -17 -17 -17 -17 -17 -17 -17 -17 -17 -18 -18 -18 -18 -18 -18 -18 -18 -18 -18 -19 -19 -19 -19 -19 -19 -19 -19 -19 -19
-18 -18 -18 -18 -18 -18 -18 -17 -17 -17 -17 -18 -18 -18 -18 -18 -18 -18 -18 -18 -18 -18 -18 -17 -17 -17 -17 -17 -17 -17 -17 -17 -17 -17 -17 -17 -17 -17 -18 -18 -18 -18 -18 -18 -18 -18 -18 -18 -18 -18 -18 -19 -19 -19 -19 -19 -19 -19 -19 -19 -19 -19 -19
-18 -18 -18 -18 -18 -18 -18 -18 -18 -18 -18 -18 -18 -18 -18 -18 -18 -18 -18 -18 -18 -18 -18 -18 -18 -18 -18 -18 -18 -18 -18 -18 -18 -18 -18 -17 -18 -18 -18 -18 -18 -18 -18 -18 -18 -18 -18 -18 -18 -19 -19 -19 -19 -19 -19 -19 -19 -19 -20 -20 -20 -20 -20
-18 -18 -18 -18 -18 -18 -18 -18 -18 -18 -18 -18 -18 -18 -18 -18 -18 -18 -18 -18 -18 -18 -18 -18 -18 -18 -18 -18 -18 -18 -18 -18 -18 -18 -18 -18 -18 -18 -19 -19 -19 -18 -18 -18 -19 -19 -19 -19 -19 -19 -19 -19 -19 -19 -19 -19 -19 -19 -20 -20 -20 -20 -20
-18 -18 -18 -18 -18 -18 -18 -18 -18 -18 -18 -18 -19 -19 -18 -18 -18 -18 -18 -18 -18 -18 -18 -18 -18 -18 -18 -18 -18 -18 -18 -18 -18 -18 -18 -18 -18 -19 -19 -19 -19 -19 -19 -19 -19 -19 -19 -19 -19 -19 -19 -19 -20 -20 -19 -20 -20 -20 -20 -20 -21 -21 -20
-19 -19 -19 -19 -19 -19 -19 -19 -18 -18 -18 -19 -19 -19 -19 -19 -19 -19 -19 -19 -19 -18 -18 -18 -18 -19 -19 -19 -19 -19 -19 -19 -19 -19 -19 -19 -19 -19 -19 -19 -19 -19 -19 -19 -19 -19 -19 -19 -19 -19 -19 -20 -20 -20 -20 -20 -20 -21 -21 -21 -21 -21 -21
-19 -19 -19 -19 -19 -19 -19 -19 -19 -19 -19 -19 -19 -19 -19 -19 -19 -19 -19 -19 -19 -19 -19 -19 -19 -19 -19 -19 -19 -19 -19 -19 -19 -19 -19 -19 -19 -19 -19 -19 -19 -19 -19 -19 -19 -20 -20 -20 -19 -19 -20 -20 -20 -20 -21 -21 -21 -21 -21 -21 -21 -21 -21
-18 -19 -19 -19 -19 -19 -19 -19 -19 -19 -19 -19 -19 -19 -19 -19 -19 -19 -19 -19 -19 -19 -19 -19 -19 -19 -19 -19 -19 -20 -20 -20 -20 -20 -19 -19 -19 -19 -19 -19 -19 -19 -19 -19 -20 -20 -20 -20 -20 -20 -20 -20 -21 -21 -21 -21 -21 -22 -22 -22 -22 -22 -22
-19 -19 -19 -19 -19 -19 -19 -19 -19 -19 -19 -20 -20 -19 -19 -19 -19 -19 -19 -19 -19 -19 -19 -19 -19 -20 -20 -20 -20 -20 -20 -20 -20 -20 -19 -19 -19 -19 -19 -19 -19 -19 -20 -20 -20 -20 -20 -20 -21 -21 -21 -21 -21 -21 -21 -22 -22 -22 -22 -22 -22 -22 -22
-19 -19 -19 -20 -20 -20 -20 -20 -20 -20 -20 -20 -20 -20 -20 -20 -20 -20 -20 -20 -20 -20 -20 -20 -20 -20 -20 -20 -20 -20 -20 -20 -20 -19 -19 -19 -19 -19 -19 -19 -20 -20 -20 -20 -20 -21 -21 -21 -21 -21 -21 -21 -21 -21 -21 -22 -22 -22 -22 -22 -22 -22 -22
-19 -19 -19 -20 -20 -20 -20 -20 -20 -20 -20 -20 -20 -20 -20 -20 -20 -20 -20 -20 -20 -20 -20 -20 -20 -20 -20 -20 -20 -20 -20 -20 -20 -20 -19 -19 -20 -20 -20 -20 -20 -20 -20 -21 -21 -21 -21 -21 -21 -21 -21 -21 -22 -22 -22 -22 -22 -22 -22 -22 -22 -22 -22
-20 -20 -20 -20 -20 -20 -20 -20 -20 -20 -20 -20 -20 -20 -20 -20 -20 -20 -20 -20 -20 -20 -20 -20 -20 -20 -20 -20 -20 -20 -20 -20 -20 -20 -20 -20 -20 -20 -20 -21 -21 -21 -21 -21 -21 -21 -21 -21 -21 -21 -22 -22 -22 -22 -22 -22 -22 -23 -23 -23 -23 -23 -22
Height
5783 5784 5785 5786 5787 5787 5788 5789 5789 5790 5790 5790 5790 5790 5790 5790 5790 5790 5790 5791 5791 5791 5791 5791 5791 5791 5791 5791 5791 5790 5790 5790 5790 5790 5790 5790 5790 5791 5791 5791 5791 5792 5792 5792 5792 5793 5793 5793 5794 5794 5795 5796 5796 5797 5797 5797 5796 5796 5795 5795 5795 5795 5795
5781 5782 5783 5784 5785 5785 5786 5787 5788 5788 5788 5788 5788 5788 5788 5788 5788 5788 5789 5789 5789 5789 5790 5790 5790 5789 5789 5789 5788 5788 5788 5788 5789 5789 5789 5789 5790 5790 5790 5790 5790 5791 5791 5791 5791 5791 5791 5792 5792 5793 5794 5794 5795 5795 5794 5794 5794 5794 5793 5793 5793 5793 5793
5779 5780 5781 5782 5782 5783 5784 5785 5786 5787 5787 5787 5787 5787 5787 5787 5787 5787 5787 5788 5788 5788 5788 5788 5788 5787 5787 5787 5786 5786 5786 5787 5787 5787 5787 5787 5788 5789 5789 5790 5790 5789 5789 5789 5789 5789 5790 5791 5791 5792 5792 5793 5793 5792 5792 5791 5791 5792 5792 5792 5791 5791 5791
5777 5778 5779 5779 5780 5781 5782 5783 5784 5785 5785 5785 5785 5785 5786 5786 5785 5785 5785 5786 5786 5786 5786 5786 5786 5786 5785 5785 5785 5785 5785 5785 5785 5785 5785 5786 5786 5787 5788 5788 5789 5788 5788 5788 5788 5788 5789 5790 5790 5791 5791 5791 5791 5790 5789 5789 5789 5790 5790 5789 5789 5789 5789
5775 5776 5776 5777 5778 5779 5780 5781 5782 5783 5784 5783 5783 5783 5784 5784 5784 5783 5783 5784 5785 5785 5785 5785 5785 5784 5784 5784 5784 5784 5784 5784 5784 5784 5784 5784 5785 5785 5786 5787 5787 5787 5786 5786 5787 5787 5788 5788 5789 5789 5789 5789 5788 5788 5787 5787 5787 5788 5787 5787 5787 5787 5787
5773 5774 5774 5775 5775 5776 5777 5778 5780 5781 5782 5782 5781 5781 5782 5782 5782 5782 5781 5782 5783 5783 5784 5784 5783 5783 5783 5783 5784 5784 5783 5783 5783 5783 5783 5783 5784 5784 5785 5785 5785 5785 5785 5785 5786 5786 5786 5787 5787 5787 5787 5787 5786 5785 5785 5786 5786 5786 5785 5785 5785 5785 5785
5771 5772 5772 5772 5773 5774 5775 5776 5777 5779 5779 5780 5779 5779 5779 5780 5780 5780 5780 5780 5781 5782 5782 5782 5782 5782 5782 5782 5782 5782 5782 5782 5782 5782 5782 5783 5783 5783 5784 5784 5784 5784 5784 5785 5785 5785 5785 5785 5785 5785 5785 5784 5783 5783 5784 5784 5784 5784 5783 5783 5783 5782 5782
5768 5769 5770 5770 5771 5771 5772 5773 5775 5776 5777 5777 5777 5777 5777 5778 5778 5778 5778 5779 5779 5780 5780 5780 5780 5780 5780 5780 5781 5781 5781 5781 5781 5781 5782 5782 5782 5783 5783 5783 5783 5784 5784 5784 5784 5784 5784 5784 5784 5783 5783 5782 5781 5781 5782 5782 5782 5782 5781 5781 5781 5780 5780
5765 5766 5767 5767 5768 5768 5769 5770 5772 5773 5774 5774 5775 5775 5776 5776 5776 5776 5777 5777 5778 5778 5778 5778 5779 5779 5779 5779 5779 5780 5780 5780 5781 5781 5781 5781 5781 5782 5782 5782 5782 5783 5783 5783 5783 5783 5783 5783 5783 5782 5781 5780 5780 5780 5780 5780 5780 5780 5780 5779 5779 5778 5778
5762 5763 5764 5765 5766 5766 5766 5767 5769 5770 5771 5771 5772 5773 5773 5774 5774 5774 5775 5776 5776 5777 5777 5777 5777 5777 5778 5778 5779 5779 5779 5780 5780 5780 5780 5780 5780 5780 5781 5781 5781 5781 5782 5782 5782 5782 5782 5783 5782 5780 5779 5779 5778 5778 5778 5778 5778 5778 5777 5777 5777 5777 5777
5760 5761 5762 5763 5763 5763 5763 5765 5767 5768 5769 5769 5769 5770 5771 5771 5772 5772 5773 5774 5775 5776 5776 5776 5776 5776 5776 5777 5777 5778 5778 5778 5779 5779 5779 5779 5779 5779 5779 5779 5780 5780 5781 5781 5781 5781 5781 5781 5781 5780 5779 5778 5778 5777 5777 5776 5776 5775 5775 5775 5775 5775 5775
5758 5759 5760 5761 5762 5760 5760 5762 5764 5766 5767 5767 5767 5768 5769 5769 5770 5770 5771 5772 5773 5774 5774 5774 5774 5775 5775 5775 5776 5776 5776 5776 5777 5777 5777 5777 5777 5777 5777 5777 5778 5779 5779 5779 5779 5779 5779 5779 5779 5779 5778 5778 5777 5777 5776 5775 5775 5775 5774 5774 5774 5773 5773
5757 5758 5759 5760 5759 5758 5758 5759 5762 5763 5764 5764 5764 5765 5766 5767 5767 5768 5769 5770 5771 5771 5772 5772 5773 5773 5773 5774 5774 5774 5774 5775 5775 5775 5775 5775 5775 5775 5775 5776 5776 5776 5777 5777 5777 5776 5776 5777 5777 5777 5777 5777 5776 5776 5775 5775 5774 5774 5773 5772 5772 5772 5771
5755 5756 5757 5758 5757 5756 5756 5758 5760 5761 5761 5762 5762 5762 5763 5764 5765 5766 5767 5768 5768 5769 5770 5770 5771 5771 5772 5772 5772 5772 5773 5773 5774 5774 5773 5773 5773 5773 5774 5774 5774 5774 5775 5775 5774 5774 5774 5775 5775 5775 5775 5775 5775 5774 5774 5773 5773 5772 5771 5771 5770 5770 5770
5752 5754 5755 5756 5755 5754 5755 5757 5758 5759 5759 5759 5759 5760 5761 5762 5763 5764 5765 5766 5766 5767 5767 5768 5769 5769 5770 5770 5770 5770 5771 5771 5772 5771 5771 5771 5771 5772 5772 5772 5772 5772 5772 5772 5772 5772 5772 5772 5772 5772 5772 5772 5772 5772 5772 5771 5771 5770 5769 5769 5769 5768 5768
5752 5753 5754 5755 5754 5753 5754 5756 5757 5757 5757 5757 5757 5758 5759 5760 5761 5762 5763 5764 5764 5765 5765 5766 5767 5767 5768 5768 5768 5769 5769 5769 5769 5769 5769 5769 5769 5770 5770 5770 5770 5770 5770 5770 5770 5770 5770 5770 5770 5770 5770 5770 5770 5770 5769 5769 5769 5768 5768 5767 5767 5766 5766
5750 5751 5752 5752 5751 5751 5752 5753 5754 5755 5755 5755 5756 5756 5757 5758 5759 5760 5761 5762 5762 5763 5764 5764 5765 5766 5766 5767 5767 5768 5768 5767 5767 5766 5767 5767 5768 5768 5768 5769 5769 5769 5769 5769 5768 5768 5768 5767 5767 5767 5767 5767 5767 5767 5767 5767 5766 5766 5766 5765 5764 5764 5763
5748 5748 5749 5748 5747 5748 5749 5750 5751 5751 5752 5752 5753 5754 5755 5756 5757 5758 5759 5759 5760 5761 5762 5763 5763 5763 5764 5764 5765 5765 5765 5764 5764 5764 5765 5766 5766 5766 5766 5766 5767 5767 5767 5766 5766 5766 5766 5766 5765 5764 5764 5763 5764 5764 5763 5763 5763 5763 5763 5763 5762 5761 5760
5745 5745 5746 5746 5746 5746 5747 5747 5748 5748 5749 5750 5750 5751 5752 5753 5754 5755 5756 5757 5758 5759 5760 5760 5761 5761 5761 5762 5762 5763 5762 5762 5762 5762 5763 5763 5763 5763 5763 5763 5764 5764 5764 5764 5763 5763 5763 5763 5763 5762 5761 5760 5760 5760 5760 5760 5759 5759 5760 5760 5760 5759 5758
5743 5743 5743 5744 5744 5745 5745 5746 5746 5746 5747 5748 5749 5749 5750 5751 5752 5753 5754 5754 5755 5757 5757 5758 5758 5759 5759 5760 5760 5760 5760 5760 5760 5760 5761 5761 5760 5760 5760 5760 5760 5760 5760 5760 5760 5760 5759 5759 5759 5759 5758 5757 5757 5757 5757 5757 5756 5756 5755 5755 5755 5755 5755
5741 5741 5742 5742 5743 5744 5744 5745 5745 5745 5746 5746 5747 5747 5748 5749 5750 5751 5751 5752 5752 5754 5755 5755 5756 5756 5757 5757 5757 5757 5757 5757 5758 5758 5758 5758 5758 5758 5758 5757 5757 5757 5756 5756 5756 5756 5755 5755 5754 5754 5754 5754 5753 5753 5753 5753 5753 5752 5752 5751 5751 5750 5750
5738 5739 5740 5741 5741 5742 5743 5743 5744 5744 5744 5744 5745 5745 5746 5746 5747 5748 5748 5749 5749 5751 5752 5752 5753 5753 5754 5754 5754 5754 5754 5754 5755 5755 5756 5756 5756 5756 5756 5755 5755 5754 5753 5753 5753 5752 5752 5751 5751 5750 5750 5750 5749 5749 5749 5749 5749 5748 5748 5748 5747 5746 5746
5737 5738 5739 5740 5740 5740 5741 5741 5742 5742 5742 5742 5743 5743 5743 5744 5744 5744 5745 5745 5746 5747 5748 5749 5750 5750 5750 5751 5751 5751 5751 5751 5751 5752 5752 5753 5753 5753 5752 5752 5751 5751 5750 5750 5749 5749 5748 5748 5747 5747 5746 5746 5745 5745 5745 5744 5744 5744 5744 5743 5743 5742 5742
5735 5736 5737 5738 5738 5739 5739 5739 5739 5739 5739 5739 5740 5740 5741 5741 5741 5741 5742 5742 5743 5744 5745 5745 5746 5746 5747 5747 5747 5747 5747 5748 5748 5749 5749 5749 5749 5749 5748 5748 5747 5747 5746 5746 5745 5745 5744 5744 5743 5743 5742 5742 5741 5741 5741 5740 5740 5739 5739 5739 5738 5738 5737
5734 5734 5735 5735 5736 5736 5736 5736 5736 5736 5736 5737 5737 5738 5738 5738 5738 5738 5739 5739 5740 5740 5741 5742 5742 5743 5743 5743 5744 5744 5744 5744 5744 5745 5745 5745 5745 5745 5744 5743 5743 5743 5742 5742 5741 5741 5740 5739 5739 5738 5738 5737 5737 5736 5736 5735 5735 5734 5734 5734 5733 5733 5733
5732 5732 5732 5733 5733 5733 5733 5733 5733 5733 5734 5735 5735 5735 5736 5736 5736 5735 5736 5736 5736 5737 5737 5738 5738 5739 5739 5739 5740 5740 5740 5740 5741 5741 5741 5740 5740 5740 5739 5739 5738 5738 5738 5737 5736 5736 5736 5735 5734 5733 5732 5732 5732 5731 5731 5730 5729 5729 5729 5729 5728 5728 5728
5728 5729 5729 5730 5730 5730 5731 5731 5731 5731 5731 5732 5732 5732 5733 5733 5733 5732 5732 5733 5733 5733 5734 5734 5735 5735 5735 5735 5735 5735 5736 5736 5735 5735 5735 5735 5735 5734 5734 5733 5733 5733 5733 5732 5732 5732 5731 5731 5729 5728 5727 5727 5727 5726 5725 5724 5724 5724 5723 5723 5723 5723 5722
5723 5724 5725 5725 5726 5727 5727 5728 5729 5729 5729 5728 5728 5728 5729 5729 5729 5729 5729 5729 5729 5729 5730 5731 5731 5731 5731 5731 5731 5731 5731 5730 5730 5730 5730 5729 5729 5728 5728 5728 5728 5728 5728 5727 5727 5727 5727 5726 5725 5722 5721 5722 5721 5721 5720 5719 5718 5718 5717 5717 5717 5716 5716
5719 5720 5720 5721 5721 5722 5723 5724 5725 5725 5725 5724 5724 5724 5725 5726 5726 5726 5726 5726 5725 5725 5725 5726 5727 5726 5726 5726 5726 5726 5726 5725 5725 5725 5724 5724 5723 5723 5722 5722 5722 5722 5722 5722 5722 5722 5722 5722 5720 5718 5717 5716 5715 5715 5714 5713 5713 5712 5712 5711 5711 5710 5710
5716 5716 5716 5717 5717 5718 5718 5719 5720 5720 5720 5720 5720 5721 5722 5722 5722 5722 5722 5722 5722 5721 5721 5721 5722 5721 5721 5721 5721 5721 5721 5721 5720 5720 5720 5719 5718 5718 5717 5717 5716 5716 5716 5716 5716 5716 5716 5716 5715 5714 5712 5711 5710 5709 5708 5708 5707 5706 5706 5705 5705 5704 5704
5711 5711 5712 5712 5713 5714 5714 5715 5715 5715 5715 5715 5715 5716 5716 5717 5717 5717 5717 5717 5717 5717 5716 5716 5716 5715 5715 5715 5715 5715 5715 5715 5716 5715 5715 5715 5714 5713 5712 5711 5711 5711 5710 5710 5710 5709 5710 5710 5710 5709 5707 5705 5705 5703 5702 5702 5702 5701 5700 5699 5698 5698 5697
5705 5706 5706 5707 5708 5708 5709 5710 5710 5711 5711 5710 5710 5710 5710 5710 5710 5710 5711 5710 5711 5710 5710 5709 5709 5708 5708 5708 5708 5708 5708 5709 5710 5710 5710 5710 5709 5708 5706 5705 5705 5704 5704 5703 5703 5702 5703 5704 5705 5704 5702 5700 5699 5698 5696 5696 5695 5694 5693 5692 5692 5691 5690
5698 5698 5699 5700 5700 5701 5702 5702 5703 5703 5704 5704 5704 5704 5704 5704 5704 5703 5703 5703 5703 5703 5703 5703 5702 5702 5701 5701 5701 5701 5702 5703 5704 5704 5704 5704 5704 5702 5700 5699 5698 5697 5696 5696 5696 5696 5695 5696 5696 5696 5695 5693 5692 5691 5690 5689 5688 5687 5686 5685 5685 5684 5683
5691 5691 5692 5692 5692 5693 5693 5694 5694 5695 5695 5696 5696 5696 5696 5696 5696 5696 5696 5696 5696 5696 5696 5696 5696 5695 5695 5694 5694 5695 5696 5696 5697 5697 5698 5698 5697 5696 5694 5692 5690 5689 5689 5688 5688 5689 5688 5688 5687 5687 5686 5685 5684 5684 5683 5682 5681 5680 5679 5678 5677 5677 5676
5686 5686 5686 5686 5686 5686 5686 5686 5686 5686 5686 5687 5687 5687 5687 5687 5688 5689 5689 5689 5689 5690 5690 5689 5689 5689 5688 5688 5687 5687 5688 5688 5688 5689 5690 5690 5689 5688 5686 5684 5683 5682 5681 5681 5681 5681 5680 5680 5680 5679 5677 5676 5676 5675 5675 5674 5673 5672 5671 5670 5670 5669 5669
5680 5680 5680 5680 5680 5680 5679 5679 5679 5679 5679 5679 5679 5680 5679 5680 5680 5681 5681 5681 5682 5683 5683 5683 5682 5682 5681 5680 5679 5679 5678 5678 5678 5679 5680 5680 5679 5678 5677 5675 5675 5674 5673 5673 5673 5672 5671 5671 5671 5671 5669 5668 5667 5667 5667 5666 5665 5665 5664 5663 5663 5662 5662
5674 5674 5674 5674 5674 5673 5673 5673 5673 5672 5672 5673 5673 5672 5672 5672 5672 5672 5673 5673 5673 5674 5674 5674 5674 5674 5673 5672 5670 5670 5669 5668 5668 5669 5670 5670 5669 5668 5667 5667 5667 5666 5665 5664 5664 5663 5663 5663 5663 5662 5661 5660 5660 5659 5659 5659 5658 5657 5657 5656 5656 5656 5655
Wind_Speed
13 13 11 10 10 10 10 10 10 11 11 11 10 9 8 7 8 8 8 9 10 10 10 11 12 12 12 11 10 9 9 8 7 7 8 8 9 9 9 9 9 9 10 10 10 10 10 11 11 11 11 10 9 9 9 9 10 11 11 11 11 10 10
12 11 9 9 10 11 11 10 10 11 11 11 10 9 8 8 9 9 9 9 11 11 11 12 13 12 12 11 10 9 9 8 8 8 9 8 9 9 9 10 10 10 10 11 11 11 12 12 12 11 11 10 9 9 9 10 11 12 11 11 11 11 11
12 9 7 8 8 9 9 9 10 11 12 12 12 10 9 10 10 11 10 11 12 13 13 13 13 13 12 11 10 10 9 8 8 8 9 9 9 9 9 10 10 11 12 12 12 13 13 13 12 11 10 10 9 9 10 11 11 11 11 11 12 13 13
14 11 7 8 8 8 9 9 10 11 12 13 13 12 11 11 12 13 13 13 13 14 13 13 12 12 12 11 11 10 9 8 7 7 8 9 9 9 10 10 11 12 12 13 14 14 14 13 12 10 10 10 10 11 12 13 12 12 12 12 13 14 14
16 12 9 10 11 12 12 12 11 12 13 14 14 13 12 12 14 15 16 15 14 15 14 12 11 11 11 11 10 10 8 8 7 7 7 8 9 10 10 11 11 12 13 13 13 13 13 13 12 11 11 11 11 13 13 13 13 12 13 13 14 14 14
15 12 11 11 12 13 14 13 13 13 13 14 15 15 13 14 14 15 16 15 15 15 15 13 12 11 10 10 9 8 8 7 7 7 7 8 9 10 11 11 11 12 12 12 12 13 13 12 12 11 11 11 13 14 14 13 13 13 13 14 14 14 14
13 13 12 12 13 14 14 14 13 14 14 14 15 15 15 14 14 14 14 14 15 15 14 13 12 11 10 9 8 8 7 7 8 8 8 8 9 10 10 11 12 12 12 12 13 13 13 12 12 11 11 12 13 14 13 12 12 12 13 13 13 13 13
14 14 14 15 16 17 18 16 14 15 15 14 15 15 15 14 14 13 13 13 14 14 13 12 11 10 10 9 8 7 7 7 7 8 8 8 9 9 10 10 11 11 11 11 11 12 12 11 11 10 11 13 13 13 12 12 11 12 13 13 13 13 13
15 15 16 17 18 19 20 17 15 15 16 15 14 13 13 14 13 13 12 13 13 13 13 12 11 10 9 9 8 8 8 8 8 8 8 9 9 9 9 10 10 10 10 10 10 10 9 9 8 9 11 12 12 12 12 12 12 12 13 13 13 13 13
15 15 17 18 19 20 20 18 17 17 17 17 16 13 12 13 13 13 13 12 13 12 12 12 11 10 10 9 9 9 9 9 9 10 10 10 10 10 10 11 11 11 10 10 9 9 8 7 7 8 10 11 11 11 12 12 12 13 13 13 13 13 13
15 15 16 18 19 21 21 19 18 18 18 20 20 17 16 16 15 14 14 13 13 13 13 12 11 11 10 10 10 10 10 11 11 12 11 11 11 11 11 11 11 10 9 8 8 8 7 7 7 7 9 10 11 11 12 12 13 13 13 14 14 14 14
15 16 16 16 18 22 22 20 19 18 19 20 21 20 19 18 17 16 15 14 13 13 13 12 12 12 12 12 12 12 12 13 13 13 12 11 10 10 9 9 10 9 8 8 7 8 8 8 7 7 7 9 9 10 11 12 13 13 14 14 15 14 14
18 19 18 17 19 22 21 19 17 16 17 18 20 20 18 18 17 15 14 14 13 13 13 13 13 12 12 13 13 13 13 14 14 13 12 10 9 8 8 8 9 8 7 7 7 7 7 7 6 6 6 7 7 8 9 11 12 12 13 13 13 12 12
22 22 21 20 21 23 22 19 17 16 16 18 18 17 16 15 15 14 14 13 12 12 12 12 12 12 12 12 12 12 13 13 13 12 11 10 9 8 8 8 7 7 6 6 7 8 7 7 7 7 7 7 7 8 9 9 10 10 11 11 11 11 12
25 25 24 22 23 24 24 21 18 17 18 18 17 15 13 13 13 13 13 12 12 12 11 11 11 12 12 12 12 12 12 12 12 11 10 9 9 9 9 9 9 8 8 9 10 10 9 9 9 9 9 9 9 9 9 10 9 10 11 12 12 13 13
24 24 23 23 25 26 24 22 21 19 18 17 15 13 12 12 13 13 12 12 12 11 11 12 13 13 13 13 12 12 12 12 10 10 10 10 11 11 11 11 11 11 11 12 13 13 13 12 11 11 12 12 12 12 12 12 12 12 12 13 14 15 16
23 23 22 23 26 27 25 23 22 20 17 14 13 12 12 12 12 13 13 12 12 12 13 14 14 14 13 13 12 11 10 10 10 11 12 12 12 12 12 12 12 12 12 13 13 14 15 15 15 15 16 16 16 15 15 15 15 15 15 15 15 16 17
21 23 23 24 26 26 25 23 22 20 17 15 14 13 13 13 13 14 14 14 14 15 15 16 15 13 13 13 12 10 9 9 11 13 14 14 13 13 13 14 15 15 15 16 17 17 17 18 19 20 20 20 18 18 19 19 19 18 18 18 18 19 19
20 22 23 23 22 21 21 22 22 21 18 17 17 16 16 16 15 15 16 16 17 17 17 17 16 14 14 14 13 11 11 12 13 15 15 15 16 16 17 18 18 18 18 19 20 20 19 19 20 21 22 22 21 20 20 20 20 21 21 22 23 23 23
21 22 23 22 20 17 17 19 20 20 18 17 18 18 18 18 17 17 17 18 19 20 20 18 17 17 16 15 14 14 14 15 15 16 16 17 18 19 19 19 20 20 20 20 21 21 21 22 23 24 24 24 24 23 21 20 21 23 25 26 27 27 27
21 19 19 19 19 17 15 17 18 18 18 18 19 19 20 19 18 17 17 19 21 21 20 19 18 18 17 16 17 17 17 18 18 18 18 18 19 19 19 20 21 22 22 22 23 24 25 27 27 27 26 26 26 26 24 23 23 25 26 28 29 30 30
21 18 15 15 18 18 17 16 17 19 20 21 20 20 20 21 21 20 19 20 21 21 21 20 20 20 20 19 19 20 20 20 20 20 20 20 20 20 20 22 23 24 24 25 26 27 28 29 30 29 29 28 28 28 27 27 27 28 28 29 30 31 32
20 18 15 15 17 19 20 19 20 21 22 22 21 20 19 20 21 22 22 22 22 23 23 22 22 22 22 22 22 21 21 22 22 23 22 22 23 23 25 26 27 27 27 27 29 29 30 30 31 32 31 30 30 29 29 29 30 31 30 30 31 32 34
17 15 13 14 16 18 20 22 22 22 22 22 22 21 20 20 20 21 22 23 23 24 23 23 23 23 24 24 24 24 24 24 25 25 25 25 26 27 29 30 30 30 29 30 31 31 32 32 33 33 33 33 32 31 30 30 31 32 32 32 32 33 34
15 13 12 14 16 18 20 21 22 22 21 21 22 24 24 23 22 21 21 22 23 24 24 24 24 25 25 26 26 26 27 27 28 28 28 29 30 30 31 31 32 32 32 32 33 33 34 35 35 36 36 36 35 33 32 32 32 32 32 32 33 34 35
15 15 15 16 17 18 19 19 20 22 22 22 22 24 25 25 24 23 23 24 25 26 27 27 28 28 29 29 29 30 30 30 31 31 32 32 33 33 33 33 33 34 35 36 36 35 36 37 38 39 39 38 37 36 34 33 33 32 32 32 33 35 37
19 20 19 19 19 18 19 19 20 22 25 26 26 26 27 27 26 26 26 27 28 29 30 31 32 33 33 33 33 33 34 34 35 35 35 35 36 36 36 36 36 36 38 39 39 38 38 38 39 41 41 39 38 38 37 36 35 34 33 34 35 36 38
23 23 23 23 23 22 22 23 23 23 25 27 27 27 28 27 27 27 28 30 32 33 34 35 36 37 37 37 37 37 38 38 38 38 38 38 38 38 38 38 38 38 39 40 40 40 39 39 40 40 39 38 39 40 40 40 38 37 37 37 37 37 38
24 25 26 25 25 26 26 27 27 27 27 26 26 27 29 31 31 31 32 34 36 37 39 39 39 40 41 41 41 42 42 42 42 42 42 42 41 41 40 40 40 40 41 41 40 40 39 39 40 41 41 41 43 44 45 44 42 41 41 39 38 39 41
26 28 29 29 28 29 30 30 31 33 33 33 33 34 36 38 38 37 37 38 39 41 42 43 43 44 44 45 45 46 46 46 46 46 45 44 44 43 43 43 43 43 42 42 41 41 40 40 41 43 45 46 46 47 47 46 45 45 43 41 41 42 44
31 32 32 32 32 32 32 33 34 35 37 39 41 42 42 43 43 43 43 43 42 43 44 46 47 47 48 49 49 50 50 50 49 48 47 46 45 44 44 44 45 45 45 44 43 43 42 42 42 44 46 46 46 46 46 46 46 46 44 44 44 44 44
37 37 37 37 36 36 36 36 37 38 39 41 43 45 45 46 47 48 47 47 47 47 48 49 50 50 51 52 52 52 52 51 50 49 48 47 46 46 47 47 48 48 48 48 47 46 45 45 44 44 46 46 47 48 47 46 47 47 46 46 47 46 46
40 40 41 41 41 41 41 41 41 41 42 44 45 46 47 48 50 51 51 50 51 52 52 53 53 53 53 52 51 50 50 49 49 49 49 50 50 50 50 51 51 51 51 51 50 48 47 46 46 46 47 48 48 48 48 48 50 50 49 50 50 50 50
40 41 42 43 43 44 44 44 44 45 45 46 46 47 49 49 50 51 52 53 53 53 54 54 54 54 52 51 49 49 49 49 50 50 51 52 53 53 54 55 55 55 54 52 51 49 48 48 48 48 49 50 50 51 51 52 53 53 52 52 53 53 54
40 41 42 43 44 44 45 46 46 46 47 47 48 49 50 50 50 51 53 54 53 52 52 52 52 52 52 52 53 53 54 55 55 55 55 56 56 57 58 58 57 56 55 53 52 50 50 50 49 49 51 52 53 54 54 54 54 53 53 55 56 56 56
42 43 43 43 44 45 46 46 47 47 47 48 49 50 51 52 53 53 55 55 54 53 53 53 54 54 55 56 57 58 59 60 60 60 59 59 59 58 58 57 56 55 55 54 53 53 52 51 50 50 51 52 52 53 53 53 54 54 55 55 56 55 56
43 43 44 44 44 45 46 46 47 48 49 50 51 52 53 55 56 57 58 59 59 60 60 60 61 61 61 61 61 61 62 62 62 62 60 60 59 59 57 56 55 55 55 54 53 52 51 49 49 48 49 49 50 50 51 51 51 52 53 54 54 54 55
Wind_Direction
228 226 227 229 236 244 250 258 264 266 267 266 262 258 252 245 243 247 249 250 251 250 247 244 244 246 248 250 251 251 253 257 264 270 274 279 281 281 279 274 267 256 248 249 253 252 250 252 256 261 264 263 261 259 256 254 252 254 257 253 246 244 251
227 225 228 240 249 248 246 248 255 260 261 259 254 249 247 246 247 251 251 250 251 250 247 243 241 241 243 244 246 248 251 254 257 262 266 269 273 276 278 278 276 269 262 257 256 255 252 250 253 257 261 262 263 261 257 253 250 251 254 250 244 247 258
213 206 222 248 253 248 245 246 253 257 254 252 248 243 244 248 251 256 254 250 249 248 244 240 238 237 238 240 242 244 246 247 249 254 259 263 265 269 272 272 271 269 268 264 260 261 260 259 260 260 260 260 258 255 252 249 247 249 251 248 248 253 261
201 198 229 257 260 257 254 252 253 252 248 247 246 242 242 248 253 257 256 249 244 241 235 230 228 226 229 232 236 239 241 240 241 244 251 260 264 266 266 265 264 262 262 261 261 265 268 269 267 262 259 257 253 249 247 245 244 247 249 250 253 258 261
204 216 248 259 257 258 259 258 250 242 242 243 246 245 245 250 255 258 258 251 239 233 228 226 225 223 221 221 223 228 232 233 235 238 245 254 261 263 264 264 263 261 259 259 261 264 265 266 264 259 254 251 247 245 245 245 247 251 253 255 258 261 262
216 236 254 254 252 253 257 257 246 234 234 238 245 250 253 257 260 261 259 251 237 230 232 233 231 227 220 214 211 212 216 220 226 230 235 241 248 255 259 261 261 259 258 259 258 257 257 256 255 252 249 247 245 244 245 247 250 254 258 261 263 265 267
226 238 244 245 248 251 255 254 243 231 228 234 245 253 259 263 264 263 260 251 239 236 239 238 230 222 216 209 205 204 207 212 216 221 224 229 235 242 248 251 251 251 251 251 251 249 248 247 245 243 241 240 241 243 246 249 253 255 256 259 263 266 269
230 236 239 242 248 253 254 250 240 230 229 236 246 255 261 264 265 265 260 252 244 242 242 236 224 217 210 206 205 205 207 212 216 219 221 223 226 230 235 240 243 245 246 246 246 245 244 241 238 236 235 237 240 242 244 245 249 253 253 255 259 262 266
234 240 244 246 249 252 251 244 235 231 232 240 248 255 260 260 261 265 263 255 247 242 238 231 222 215 209 206 209 212 217 222 226 228 230 231 232 232 234 238 242 243 243 243 243 243 243 241 241 241 241 243 245 248 250 248 248 250 251 252 255 258 263
241 249 253 252 249 249 248 241 232 230 235 242 247 254 263 263 260 263 264 257 248 242 235 228 224 220 214 212 216 223 230 234 235 237 238 240 241 242 242 243 246 247 246 246 244 244 243 241 245 251 253 256 259 262 264 263 261 260 260 260 261 260 260
246 253 255 253 247 245 245 241 233 233 238 244 248 255 265 268 263 261 262 258 250 244 238 232 228 226 223 223 228 233 237 239 240 241 241 241 242 242 243 245 247 249 251 254 256 258 256 248 245 250 257 263 267 269 271 273 274 274 272 270 267 264 262
245 251 252 252 248 244 244 242 236 236 240 247 253 259 264 265 261 258 259 258 252 246 241 237 233 232 231 232 235 237 240 242 243 243 241 239 237 238 242 248 252 256 260 264 266 265 264 261 257 254 257 261 266 268 269 270 270 270 268 266 265 266 267
240 247 250 249 246 244 244 241 236 238 245 252 258 262 261 258 255 254 254 254 250 246 244 243 242 241 241 242 244 246 248 249 248 245 241 239 238 241 247 254 260 263 266 269 269 267 268 274 277 272 267 264 262 261 261 263 264 265 265 266 267 269 270
237 243 247 244 241 241 241 238 238 245 255 260 260 258 255 251 250 250 250 249 249 248 247 248 249 249 250 252 253 255 257 257 256 255 254 255 257 259 261 262 263 266 271 272 273 276 283 294 300 298 294 286 275 266 264 267 271 273 273 274 276 276 274
236 241 245 246 244 242 241 242 247 256 264 263 254 245 242 242 243 244 246 247 248 248 249 250 251 252 254 254 254 254 255 256 257 262 270 276 278 277 275 273 272 277 282 280 278 281 287 296 301 301 299 294 288 283 280 278 279 279 280 281 283 282 279
241 244 246 248 250 250 248 249 255 261 262 254 241 232 231 236 240 242 245 249 250 252 254 257 260 260 260 259 256 254 254 257 263 271 279 281 280 279 278 277 280 286 291 290 289 289 293 298 302 302 300 298 297 295 291 285 279 276 277 279 280 279 278
244 244 244 245 250 252 251 252 257 259 252 236 227 228 230 236 242 245 250 254 257 260 263 266 268 268 268 268 266 266 269 277 286 289 286 284 283 282 281 279 280 285 292 296 297 299 302 304 306 305 302 300 299 298 294 287 281 277 276 275 275 274 274
247 246 244 244 247 250 250 251 252 250 236 218 217 224 229 236 242 248 253 256 259 261 264 265 266 267 269 270 273 280 290 296 296 293 292 293 292 289 286 285 285 288 293 296 297 298 300 302 303 302 300 298 296 297 296 292 287 282 278 277 276 274 271
251 252 249 246 246 247 246 245 245 240 226 214 215 221 227 234 240 248 253 256 258 260 260 258 258 259 262 266 273 280 285 287 288 290 294 295 294 293 292 293 294 297 299 300 299 297 297 298 300 301 300 298 296 296 296 295 292 288 284 282 279 277 275
247 250 249 247 244 242 243 243 241 234 224 220 222 226 231 236 241 247 250 253 256 257 256 254 254 255 257 262 269 273 276 280 285 289 291 290 290 291 293 293 295 298 301 302 301 297 295 297 299 300 299 297 295 295 293 291 290 290 289 287 283 281 278
242 244 244 245 241 240 243 243 242 237 231 230 230 232 236 240 242 243 243 246 250 251 250 250 251 253 257 261 266 270 274 278 283 288 290 287 283 282 284 287 291 293 296 298 298 297 296 297 298 297 296 295 294 293 291 289 286 286 287 287 286 283 279
239 241 240 242 239 237 237 240 244 245 242 239 240 242 244 246 245 241 238 241 245 246 246 247 249 253 257 261 265 269 273 277 280 286 289 286 279 275 277 282 287 290 292 293 295 296 296 297 296 295 293 292 292 292 291 290 288 287 285 286 285 282 277
238 240 241 241 237 234 235 240 247 250 247 245 245 246 247 247 246 241 238 240 243 246 249 250 252 254 257 260 263 266 270 274 278 281 284 283 280 277 278 281 284 287 289 291 293 294 295 296 296 294 292 289 288 289 290 291 290 289 287 285 283 279 275
233 235 242 241 237 237 240 246 252 250 245 242 241 240 242 244 244 242 241 242 245 248 250 252 253 255 257 260 264 267 270 273 276 279 280 280 279 279 281 282 283 284 286 290 292 292 293 294 294 293 291 288 287 287 288 289 290 290 289 286 284 280 276
228 237 252 245 237 239 245 250 252 248 242 240 240 240 242 244 244 243 243 244 246 248 250 251 253 256 260 263 266 268 270 273 275 276 277 278 278 279 281 282 283 282 283 287 290 290 290 291 292 291 289 286 285 286 287 287 287 286 285 284 283 280 277
241 255 263 251 239 239 243 247 246 242 237 236 238 239 241 243 243 244 245 247 250 252 253 254 256 259 261 263 265 266 268 269 270 271 272 273 275 276 278 281 281 280 281 285 288 288 287 288 288 287 286 284 284 286 286 286 285 284 283 282 280 278 275
247 253 256 252 247 245 245 245 246 241 235 233 236 239 240 241 244 247 250 253 255 257 258 258 259 260 260 261 261 262 263 264 265 266 268 269 271 273 275 278 279 280 281 283 286 287 286 287 286 284 282 281 283 285 285 285 285 284 284 283 281 278 275
245 248 251 251 249 248 246 245 247 245 238 235 235 236 239 244 249 253 256 259 261 262 262 261 261 262 262 262 262 262 263 264 265 266 268 269 271 274 276 278 280 281 281 283 285 286 287 287 284 281 280 280 281 282 282 282 283 285 286 285 282 279 276
250 251 254 253 250 250 252 251 251 250 246 240 236 238 247 255 259 260 261 261 261 262 262 262 263 264 264 265 265 265 266 267 267 267 268 269 271 274 277 279 281 281 282 283 284 285 285 285 282 279 279 279 279 279 279 279 280 284 285 283 279 276 274
251 249 251 252 252 256 260 260 259 257 255 252 251 254 259 261 262 262 262 262 261 261 262 262 263 264 264 265 266 266 267 267 267 268 268 269 272 275 278 280 281 282 283 284 284 283 283 282 280 278 277 277 277 278 278 277 279 280 280 277 276 275 274
259 257 256 257 258 260 261 262 262 261 260 259 260 262 263 263 262 262 262 261 261 261 262 264 264 265 265 266 266 267 268 267 267 267 268 269 273 277 279 281 282 282 284 284 283 282 281 280 279 279 278 277 275 275 275 275 276 276 276 276 276 276 276
266 264 261 261 261 262 262 262 262 261 261 260 260 261 262 261 261 260 260 260 260 261 262 264 265 266 267 268 269 270 270 269 269 269 270 272 275 278 280 282 283 284 284 284 283 282 280 280 279 276 274 273 273 273 273 272 272 273 274 275 276 276 276
271 269 267 266 266 265 265 264 262 261 260 260 260 261 261 260 259 258 258 258 260 262 264 265 267 268 268 268 269 268 268 269 271 272 273 274 276 279 281 282 283 283 283 282 282 281 279 279 277 273 271 270 271 271 270 269 270 271 273 274 274 274 275
270 269 268 268 268 268 268 267 266 265 265 265 265 265 265 265 264 263 262 263 265 267 269 270 270 270 269 268 269 269 270 271 273 274 275 276 278 280 281 282 281 281 281 281 280 279 278 276 274 272 270 269 268 267 267 267 269 270 271 272 272 273 274
264 263 263 263 264 265 265 267 268 269 270 270 271 271 271 271 271 270 269 270 270 270 270 271 270 270 270 270 271 273 275 275 276 276 277 278 279 280 280 280 279 279 278 278 278 277 276 274 271 269 268 268 267 266 267 267 268 269 269 270 271 273 274
262 262 262 262 262 262 263 264 266 267 268 268 269 269 269 269 269 268 268 268 268 268 268 269 270 271 272 272 274 275 276 276 277 278 278 279 279 278 277 277 277 277 278 278 278 276 274 273 271 270 268 268 267 267 268 268 268 268 268 269 271 273 275
264 264 265 266 266 266 267 268 268 269 269 269 269 269 268 268 269 269 268 269 270 270 271 271 272 273 273 274 275 275 276 276 277 278 278 278 278 277 276 275 276 277 278 278 277 276 274 272 270 268 268 267 268 268 267 267 267 267 269 270 272 273 275